Погода в Самсоновке

Россия / Самарская область     53°53′14″N   51°30′31″E
темп.,
°C
ветер,
м/с
пор.,
м/с
влажн.,
%
обл.,
%
осадки,
мм/ч
давл.,
гПа
погр.,
м
17 апреля, сб
сб1701:00+10всв5118670 0.0 1022284
04:00+8св49905 0.0 1023215
07:00+8св49855 0.0 1023265
10:00+13св67634 0.0 1023566
13:00+16св66495 0.0 1022964
16:00+16всв56434 0.0 10221134
19:00+13св48510 0.0 1022213
22:00+10св510570 0.0 1022256
18 апреля, вс
вс1801:00+7всв512570 0.0 1022283
04:00+5св38614 0.0 1022186
07:00+6всв410620 0.0 1022317
10:00+11всв67431 0.0 1022705
13:00+14всв66341 0.0 10211157
16:00+14всв663384 0.0 10211446
19:00+11всв6104751 0.0 1021390
22:00+8всв7136633 0.0 1023489
19 апреля, пн
пн1901:00+6всв61264100 0.0 1024433
04:00+4всв71376100 0.0 1024434
07:00+3всв71271100 0.0 1025481
10:00+7в8960100 0.0 1026913
13:00+7в8955100 0.0 10271134
16:00+6в8960100 0.0 10271156
19:00+5в61066100 0.0 10281051
22:00+5вюв41065100 0.0 1029692
20 апреля, вт
вт2001:00+4вюв61254100 0.0 1029634
04:00+2вюв6135449 0.0 1031523
07:00+1вюв713533 0.0 1032644
10:00+5вюв810390 0.0 1031922
13:00+8вюв89330 0.0 10311239
16:00+10юв793067 0.0 10301417
19:00+8вюв6113594 0.0 1029555
22:00+6вюв6144073 0.0 1030454
21 апреля, ср
ср2101:00+4юв7154599 0.0 1030478
04:00+3юв7155199 0.0 1029442
07:00+3юв81651100 0.0 1029526
10:00+7юв91437100 0.0 1028764
13:00+11ююв9112989 0.0 10271210
16:00+12ююв81130100 0.0 10271300
19:00+10ююв61140100 0.0 1027534
22:00+9ююв41048100 0.0 1027298